Veracruz Airport, Mexico

11:17 AM CST on December 13, 2017 (GMT -0600)
Gen Heriberto Jara International

Weather History for MMVR - January, 2013

Change the Weather History Date:

Monday, January 21, 2013

  Actual Average Record
Temperature  
Mean Temperature 70 °F -  
Max Temperature 77 °F 79 °F 95 °F (2017)
Min Temperature 64 °F 63 °F 59 °F (2001)
Cooling Degree Days 6    
Growing Degree Days 20 (Base 50)    
Moisture  
Dew Point 62 °F    
Average Humidity 74    
Maximum Humidity 88    
Minimum Humidity 54    
Precipitation  
Precipitation 0.00 in - - ()
Sea Level Pressure  
Sea Level Pressure 30.09 in    
Wind  
Wind Speed 2 mph ()    
Max Wind Speed 10 mph    
Max Gust Speed -    
Visibility 6.9 miles    
Events      
Averages and records for this station are not official NWS values.
T = Trace of Precipitation, MM = Missing Value Source: Averaged Metar Reports

Daily Weather History Graph

Daily Weather History Graph

Search for Another Location

Airport or City:

Trip Planner

Search our weather history database for the weather conditions in past years. The results will help you decide how hot, cold, wet, or windy it might be!

Date:

Astronomy

Jan. 21, 2013 Rise Set
Actual Time 7:01 AM CST 6:11 PM CST
Civil Twilight 6:37 AM CST 6:34 PM CST
Nautical Twilight 6:11 AM CST 7:01 PM CST
Astronomical Twilight 5:44 AM CST 7:27 PM CST
Moon 1:54 PM CST (1/21) 2:29 AM CST (1/21)
Length of Visible Light 11h 56m
Length of Day
11h 10m
Waxing Gibbous, 75% of the Moon is Illuminated
Jan 21
Waxing Gibbous
Jan 26
Full
Feb 3
Last Quarter
Feb 10
New
Feb 17
First Quarter

Hourly Weather History & Observations

Time (CST) Temp. Dew Point Humidity Pressure Visibility Wind Dir Wind Speed Gust Speed Precip Events Conditions
5:05 AM 66.2 °F 62.6 °F 88% 30.09 in 7.0 mi WSW 2.3 mph - N/A   Mostly Cloudy
5:50 AM 66.2 °F 60.8 °F 83% 30.06 in 7.0 mi Calm Calm - N/A   Scattered Clouds
6:47 AM 64.4 °F 60.8 °F 88% 30.11 in 7.0 mi Calm Calm - N/A   Overcast
7:51 AM 66.2 °F 62.6 °F 88% 30.12 in 7.0 mi Calm Calm - N/A   Overcast
8:44 AM 69.8 °F 62.6 °F 78% 30.12 in 7.0 mi West 3.5 mph - N/A   Overcast
9:45 AM 73.4 °F 60.8 °F 65% 30.17 in 7.0 mi SW 2.3 mph - N/A   Overcast
10:40 AM 73.4 °F 62.6 °F 69% 30.16 in 7.0 mi South 3.5 mph - N/A   Overcast
11:44 AM 75.2 °F 60.8 °F 61% 30.09 in 7.0 mi Calm Calm - N/A   Overcast
12:41 PM 77.0 °F 59.0 °F 54% 30.11 in 7.0 mi SE 3.5 mph - N/A   Overcast
1:42 PM 75.2 °F 60.8 °F 61% 30.07 in 7.0 mi East 2.3 mph - N/A   Overcast
2:44 PM 77.0 °F 60.8 °F 57% 30.01 in 7.0 mi East 6.9 mph - N/A   Overcast
3:45 PM 75.2 °F 60.8 °F 61% 30.04 in 7.0 mi East 9.2 mph - N/A   Overcast
4:43 PM 73.4 °F 62.6 °F 69% 30.06 in 7.0 mi ENE 10.4 mph - N/A   Overcast
5:44 PM 71.6 °F 62.6 °F 73% 30.06 in 6.0 mi ENE 8.1 mph - N/A   Overcast
6:47 PM 71.6 °F 64.4 °F 78% 30.09 in 7.0 mi ENE 5.8 mph - N/A   Mostly Cloudy
7:46 PM 71.6 °F 64.4 °F 78% 30.11 in 7.0 mi ENE 3.5 mph - N/A   Mostly Cloudy
8:47 PM 69.8 °F 64.4 °F 83% 30.11 in 7.0 mi Calm Calm - N/A   Mostly Cloudy
9:47 PM 68.0 °F 62.6 °F 83% 30.14 in 7.0 mi NNW 3.5 mph - N/A   Mostly Cloudy
10:51 PM 68.0 °F 62.6 °F 83% 30.14 in 7.0 mi Calm Calm - N/A   Mostly Cloudy
11:49 PM 68.0 °F 62.6 °F 83% 29.99 in 6.0 mi Calm Calm - N/A   Mostly Cloudy